This is the latest recevied weather packets stored in our database for station/object K1ZK-13. If no packets are shown the sender has not sent any weather packets the latest 10 day(s).
| Time | Temp. | Humidity | Pressure | Rain* | Wind** | Luminosity | Snow |
|---|---|---|---|---|---|---|---|
| 1778178931 | 10.56° C | 44% | 1008.3 hPa | 0 mm | - | 212 W/m² | - |
| 1778178629 | 10.56° C | 43% | 1008.6 hPa | 0 mm | - | 183 W/m² | - |
| 1778178325 | 10.56° C | 41% | 1008.4 hPa | 0 mm | - | 167 W/m² | - |
| 1778177718 | 10.56° C | 47% | 1008.5 hPa | 0 mm | - | 602 W/m² | - |
| 1778177414 | 10.56° C | 47% | 1008.6 hPa | 0 mm | - | 602 W/m² | - |
| 1778177111 | 10.56° C | 46% | 1008.6 hPa | 0 mm | - | 173 W/m² | - |
| 1778176808 | 10.56° C | 43% | 1008.4 hPa | 0 mm | - | 149 W/m² | - |
| 1778174990 | 11.67° C | 42% | 1008.5 hPa | 0 mm | - | 395 W/m² | - |
| 1778174686 | 11.67° C | 42% | 1008.6 hPa | 0 mm | - | 395 W/m² | - |
| 1778174383 | 11.11° C | 45% | 1008.8 hPa | 0 mm | - | 225 W/m² | - |
| 1778174078 | 11.11° C | 45% | 1008.8 hPa | 0 mm | - | 225 W/m² | - |
| 1778173776 | 11.11° C | 44% | 1008.7 hPa | 0 mm | - | 844 W/m² | - |
| 1778173472 | 11.67° C | 42% | 1008.8 hPa | 0 mm | - | 315 W/m² | - |
| 1778173169 | 11.67° C | 42% | 1008.9 hPa | 0 mm | - | 315 W/m² | - |
| 1778172258 | 12.22° C | 44% | 1008.8 hPa | 0 mm | - | 806 W/m² | - |
| 1778171955 | 12.22° C | 44% | 1009 hPa | 0 mm | - | 283 W/m² | - |
| 1778171653 | 11.67° C | 43% | 1009 hPa | 0 mm | - | 744 W/m² | - |
| 1778171349 | 12.22° C | 43% | 1009 hPa | 0 mm | - | 740 W/m² | - |
| 1778171044 | 12.22° C | 43% | 1009.1 hPa | 0 mm | - | 740 W/m² | - |
| 1778170742 | 12.22° C | 42% | 1008.9 hPa | 0 mm | - | 710 W/m² | - |
| 1778170438 | 12.78° C | 45% | 1009.2 hPa | 0 mm | - | 707 W/m² | - |
| 1778170135 | 12.22° C | 42% | 1009.1 hPa | 0 mm | - | 696 W/m² | - |
| 1778169830 | 12.78° C | 48% | 1009.3 hPa | 0 mm | - | 680 W/m² | - |
| 1778169527 | 12.22° C | 49% | 1009.2 hPa | 0 mm | - | 677 W/m² | - |
| 1778169223 | 11.67° C | 46% | 1009.3 hPa | 0 mm | - | 672 W/m² | - |
* Rain latest hour (hover to see other rain measurements)
** Current wind speed in m/s (hover to see current wind gust speed)